Погода в Ла-Серене

Чили     29°54′23″S   71°14′46″W
темп.,
°C
ветер,
м/с
пор.,
м/с
влажн.,
%
обл.,
%
осадки,
мм/ч
давл.,
гПа
погр.,
м
16 октября, сб
сб1600:00+11с22760 0.0 1020159
03:00+10ссз11810 0.0 101921
06:00+9зюз00830 0.0 101916
09:00+12сз10660 0.0 1021242
12:00+16зсз32510 0.0 1020551
15:00+18зсз42500 0.0 1019552
18:00+16ссз33570 0.0 1018405
21:00+14зсз11670 0.0 101995
17 октября, вс
вс1700:00+12зсз11760 0.0 101940
03:00+12зюз11790 0.0 101810
06:00+11ссв01810 0.0 101710
09:00+14зсз10630 0.0 1018168
12:00+19зсз32470 0.0 1018443
15:00+19зсз32470 0.0 1017450
18:00+18ссз32540 0.0 1016321
21:00+15с22680 0.0 101675
18 октября, пн
пн1800:00+14сз11710 0.0 101513
03:00+13зсз11770 0.0 101410
06:00+12сз11790 0.0 101410
09:00+16сз21620 0.0 1015164
12:00+19зсз32500 0.0 1015430
15:00+19зсз42527 0.0 1014429
18:00+17сз32617 0.0 1014336
21:00+13с228215 0.0 1015114
19 октября, вт
вт1900:00+13ссз22840 0.0 101589
03:00+12ссз22894 0.0 101459
06:00+11ссз229521 0.0 101547
09:00+13сз218113 0.0 1016261
12:00+16зсз32654 0.0 1016516
15:00+17зсз42635 0.0 1016495
18:00+15зсз32687 0.0 1015371
21:00+12з11838 0.0 1016125
20 октября, ср
ср2000:00+12сз11847 0.0 101774
03:00+11з119317 0.0 101752
06:00+10св11930 0.0 101818
09:00+14зсз11730 0.0 1018235
12:00+17зсз32600 0.0 1020494
15:00+18з43557 0.0 1019498
18:00+16з22591 0.0 1019418
21:00+14юз11770 0.0 101885